Regional Weather Roundup
Issued by NWS Binghamton, NY

Home | Current Version | Previous Version | Text Only | Print | Product List | Glossary On
Versions: 1 2 3 4 5 6 7 8 9 10 11 12 13 14 15 16 17 18 19 20 21 22 23 24 25 26 27 28 29 30 31 32 33 34 35 36 37 38 39 40 41 42 43 44 45 46 47 48 49 50
000
ASUS41 KBGM 160010
RWRBGM
RWRBGM
BINGHAMTON REGIONAL WEATHER ROUNDUP
NATIONAL WEATHER SERVICE BINGHAMTON NY
800 PM EDT MON SEP 15 2014

Note: "fair" indicates few or no clouds below 12,000 feet with no
significant weather and/or obstructions to visibility.

* = Station(s) that does not report precipitation, such as rain,
snow, etc, also no thunder or fog.

!NYZ009-015>018-022>025-036-037-044>046-055>057-062-160100
...CENTRAL NEW YORK...

CITY           SKY/WX    TMP DP  RH WIND       PRES   REMARKS
BINGHAMTON     MOCLDY    59  45  59 SW6       30.09S
CORTLAND       CLOUDY    57  52  82 CALM      30.09S
DANSVILLE      LGT RAIN  59  52  77 NW3       30.09S
ELMIRA         CLOUDY    60  52  74 NW3       30.07R
ITHACA         MOCLDY    57  53  86 SE3       30.08F
HAMILTON       CLOUDY    57  52  82 CALM      30.09S
MONTICELLO     CLEAR     57  46  67 S6        30.12S
NORWICH        CLEAR     54  52  94 CALM      30.10R
PENN YAN       CLOUDY    61  50  67 VRB5      30.07F
ROME           CLOUDY    59  49  69 E3        30.09S
SIDNEY         CLEAR     57  54  88 CALM      30.08S
SYRACUSE       CLOUDY    61  51  70 E5        30.06S
$$

!PAZ038>040-043-044-047-048-072-160100
...NORTHEAST PENNSYLVANIA...

CITY           SKY/WX    TMP DP  RH WIND       PRES   REMARKS
HAZLETON       PTCLDY    57  48  72 CALM      30.13F
SCRANTON       PTCLDY    60  45  57 CALM      30.08F
TOWANDA*       PTCLDY    59  48  67 W3        30.09R
$$
&&
KEY
WCI = WIND CHILL INDEX
VSB = VISIBILITY
HX  = HEAT INDEX
$$


USA.gov is the U.S. government's official web portal to all federal, state and local government web resources and services.